Time,TemperatureF,DewpointF,PressureIn,WindDirection,WindDirectionDegrees,WindSpeedMPH,WindSpeedGustMPH,Humidity,HourlyPrecipIn,Conditions,Clouds,dailyrainin,SoftwareType,DateUTC
2013-01-10 00:04:00,50.5,48.3,30.05,WSW,243,0.0,0.0,92,0.00,,SKC,0.00,VWS V14.01,2013-01-10 06:04:00,
2013-01-10 00:09:00,50.4,48.2,30.05,WSW,243,0.0,0.0,92,0.00,,SKC,0.00,VWS V14.01,2013-01-10 06:09:00,
2013-01-10 00:14:00,50.1,47.9,30.06,WSW,243,0.0,1.0,92,0.00,,SKC,0.00,VWS V14.01,2013-01-10 06:14:00,
2013-01-10 00:19:00,49.9,47.4,30.06,WSW,243,0.0,1.0,91,0.00,,SKC,0.00,VWS V14.01,2013-01-10 06:19:00,
2013-01-10 00:24:00,49.6,47.4,30.06,WSW,243,0.0,1.0,92,0.00,,SKC,0.00,VWS V14.01,2013-01-10 06:24:00,
2013-01-10 00:29:00,49.6,47.4,30.06,WSW,243,0.0,1.0,92,0.00,,SKC,0.00,VWS V14.01,2013-01-10 06:29:00,
2013-01-10 00:30:00,49.6,47.4,30.06,WSW,243,0.0,1.0,92,0.00,,SKC,0.00,VWS V14.01,2013-01-10 06:30:00,
2013-01-10 00:34:00,49.7,47.8,30.06,WSW,243,0.0,0.0,93,0.00,,SKC,0.00,VWS V14.01,2013-01-10 06:34:00,
2013-01-10 00:39:00,49.9,48.0,30.05,WSW,243,0.0,1.0,93,0.00,,SKC,0.00,VWS V14.01,2013-01-10 06:39:00,
2013-01-10 00:44:00,50.2,48.3,30.05,WSW,243,0.0,2.0,93,0.00,,SKC,0.00,VWS V14.01,2013-01-10 06:44:00,
2013-01-10 00:49:00,50.5,48.6,30.05,WSW,243,0.0,2.0,93,0.00,,SKC,0.00,VWS V14.01,2013-01-10 06:49:00,
2013-01-10 00:54:00,50.5,48.6,30.06,WSW,243,1.0,3.0,93,0.00,,SKC,0.00,VWS V14.01,2013-01-10 06:54:00,
2013-01-10 00:59:00,50.4,48.5,30.06,WSW,243,0.0,3.0,93,0.00,,SKC,0.00,VWS V14.01,2013-01-10 06:59:00,
2013-01-10 01:00:00,50.3,48.4,30.06,WSW,243,0.0,3.0,93,0.00,,SKC,0.00,VWS V14.01,2013-01-10 07:00:00,
2013-01-10 01:04:00,50.2,48.3,30.06,WSW,243,0.0,1.0,93,0.00,,SKC,0.00,VWS V14.01,2013-01-10 07:04:00,
2013-01-10 01:09:00,49.9,48.0,30.06,WSW,243,0.0,1.0,93,0.00,,SKC,0.00,VWS V14.01,2013-01-10 07:09:00,
2013-01-10 01:14:00,49.6,47.7,30.06,WSW,243,2.0,3.0,93,0.00,,SKC,0.00,VWS V14.01,2013-01-10 07:14:00,
2013-01-10 01:19:00,49.7,48.0,30.06,WSW,243,0.0,3.0,94,0.00,,SKC,0.00,VWS V14.01,2013-01-10 07:19:00,
2013-01-10 01:24:00,49.9,48.2,30.07,WSW,243,1.0,4.0,94,0.00,,SKC,0.00,VWS V14.01,2013-01-10 07:24:00,
2013-01-10 01:29:00,49.9,48.2,30.07,WSW,243,0.0,4.0,94,0.00,,SKC,0.00,VWS V14.01,2013-01-10 07:29:00,
2013-01-10 01:30:00,49.9,48.2,30.08,WSW,243,1.0,4.0,94,0.00,,SKC,0.00,VWS V14.01,2013-01-10 07:30:00,
2013-01-10 01:34:00,49.8,48.2,30.07,WSW,243,0.0,2.0,94,0.00,,SKC,0.00,VWS V14.01,2013-01-10 07:34:00,
2013-01-10 01:39:00,49.6,48.0,30.07,WSW,243,2.0,3.0,94,0.00,,SKC,0.00,VWS V14.01,2013-01-10 07:39:00,
2013-01-10 01:44:00,49.6,48.0,30.07,WSW,243,0.0,4.0,94,0.00,,SKC,0.00,VWS V14.01,2013-01-10 07:44:00,
2013-01-10 01:49:00,49.7,48.0,30.07,WSW,243,0.0,5.0,94,0.00,,SKC,0.00,VWS V14.01,2013-01-10 07:49:00,
2013-01-10 01:54:00,49.8,48.2,30.07,WSW,243,0.0,6.0,94,0.00,,SKC,0.00,VWS V14.01,2013-01-10 07:54:00,
2013-01-10 01:59:00,49.9,48.2,30.07,SW,236,4.0,7.0,94,0.00,,SKC,0.00,VWS V14.01,2013-01-10 07:59:00,
2013-01-10 02:00:00,50.0,48.3,30.07,SW,236,1.0,7.0,94,0.00,,SKC,0.00,VWS V14.01,2013-01-10 08:00:00,
2013-01-10 02:04:00,50.0,48.3,30.07,SW,236,0.0,4.0,94,0.00,,SKC,0.00,VWS V14.01,2013-01-10 08:04:00,
2013-01-10 02:09:00,50.1,48.4,30.07,SW,236,2.0,4.0,94,0.00,,SKC,0.00,VWS V14.01,2013-01-10 08:09:00,
2013-01-10 02:14:00,50.2,48.5,30.08,SW,234,0.0,7.0,94,0.00,,SKC,0.00,VWS V14.01,2013-01-10 08:14:00,
2013-01-10 02:19:00,50.3,48.6,30.08,SW,234,4.0,7.0,94,0.00,,SKC,0.00,VWS V14.01,2013-01-10 08:19:00,
2013-01-10 02:24:00,50.4,48.7,30.08,SW,227,3.0,7.0,94,0.00,,SKC,0.00,VWS V14.01,2013-01-10 08:24:00,
2013-01-10 02:29:00,50.3,48.6,30.07,SW,223,3.0,7.0,94,0.00,,SKC,0.00,VWS V14.01,2013-01-10 08:29:00,
2013-01-10 02:30:00,50.3,48.6,30.07,SW,220,1.0,7.0,94,0.00,,SKC,0.00,VWS V14.01,2013-01-10 08:30:00,
2013-01-10 02:34:00,50.3,48.6,30.08,SW,221,7.0,7.0,94,0.00,,SKC,0.00,VWS V14.01,2013-01-10 08:34:00,
2013-01-10 02:39:00,50.1,48.4,30.08,SW,220,9.0,11.0,94,0.00,,SKC,0.00,VWS V14.01,2013-01-10 08:39:00,
2013-01-10 02:44:00,50.0,48.6,30.08,SW,225,5.0,13.0,95,0.00,,SKC,0.00,VWS V14.01,2013-01-10 08:44:00,
2013-01-10 02:48:00,49.9,48.5,30.08,SW,223,10.0,13.0,95,0.00,,SKC,0.00,VWS V14.01,2013-01-10 08:48:00,
2013-01-10 02:53:00,49.9,48.5,30.08,SSW,208,3.0,13.0,95,0.00,,SKC,0.00,VWS V14.01,2013-01-10 08:53:00,
2013-01-10 02:58:00,49.8,48.4,30.08,SW,214,3.0,13.0,95,0.00,,SKC,0.00,VWS V14.01,2013-01-10 08:58:00,
2013-01-10 03:00:00,49.7,48.3,30.08,SW,214,3.0,13.0,95,0.00,,SKC,0.00,VWS V14.01,2013-01-10 09:00:00,
2013-01-10 03:03:00,49.7,48.3,30.08,SW,215,7.0,7.0,95,0.00,,SKC,0.00,VWS V14.01,2013-01-10 09:03:00,
2013-01-10 03:08:00,49.7,48.3,30.08,SW,228,6.0,10.0,95,0.00,,SKC,0.00,VWS V14.01,2013-01-10 09:08:00,
2013-01-10 03:13:00,49.6,48.2,30.08,SW,223,3.0,10.0,95,0.00,,SKC,0.00,VWS V14.01,2013-01-10 09:13:00,
2013-01-10 03:18:00,49.6,48.2,30.08,SW,215,2.0,10.0,95,0.00,,SKC,0.00,VWS V14.01,2013-01-10 09:18:00,
2013-01-10 03:23:00,49.6,48.2,30.08,SW,218,10.0,10.0,95,0.00,,SKC,0.00,VWS V14.01,2013-01-10 09:23:00,
2013-01-10 03:28:00,49.5,48.1,30.08,SSW,213,5.0,10.0,95,0.00,,SKC,0.00,VWS V14.01,2013-01-10 09:28:00,
2013-01-10 03:30:00,49.4,48.0,30.08,SSW,213,1.0,10.0,95,0.00,,SKC,0.00,VWS V14.01,2013-01-10 09:30:00,
2013-01-10 03:34:00,49.4,48.0,30.08,SW,215,5.0,10.0,95,0.00,,SKC,0.00,VWS V14.01,2013-01-10 09:34:00,
2013-01-10 03:38:00,49.3,47.9,30.08,SSW,211,1.0,7.0,95,0.00,,SKC,0.00,VWS V14.01,2013-01-10 09:38:00,
2013-01-10 03:44:00,49.2,47.8,30.08,SSW,211,3.0,10.0,95,0.00,,SKC,0.00,VWS V14.01,2013-01-10 09:44:00,
2013-01-10 03:49:00,49.2,47.8,30.08,SSW,211,1.0,10.0,95,0.00,,SKC,0.00,VWS V14.01,2013-01-10 09:49:00,
2013-01-10 03:53:00,49.2,47.8,30.09,SW,216,4.0,10.0,95,0.00,,SKC,0.00,VWS V14.01,2013-01-10 09:53:00,
2013-01-10 03:58:00,49.1,47.7,30.09,SW,219,2.0,11.0,95,0.00,,SKC,0.00,VWS V14.01,2013-01-10 09:58:00,
2013-01-10 04:03:00,49.1,47.7,30.09,SSW,209,4.0,10.0,95,0.00,,SKC,0.00,VWS V14.01,2013-01-10 10:03:00,
2013-01-10 04:08:00,49.0,47.6,30.08,SSW,202,4.0,11.0,95,0.00,,SKC,0.00,VWS V14.01,2013-01-10 10:08:00,
2013-01-10 04:14:00,48.9,47.5,30.08,SSW,212,5.0,11.0,95,0.00,,SKC,0.00,VWS V14.01,2013-01-10 10:14:00,
2013-01-10 04:19:00,48.7,47.3,30.08,SW,215,0.0,11.0,95,0.00,,SKC,0.00,VWS V14.01,2013-01-10 10:19:00,
2013-01-10 04:23:00,48.5,47.1,30.08,SW,229,5.0,12.0,95,0.00,,SKC,0.00,VWS V14.01,2013-01-10 10:23:00,
2013-01-10 04:29:00,48.4,47.0,30.08,SW,225,1.0,12.0,95,0.00,,SKC,0.00,VWS V14.01,2013-01-10 10:29:00,
2013-01-10 04:34:00,48.3,46.9,30.08,SW,223,4.0,7.0,95,0.00,,SKC,0.00,VWS V14.01,2013-01-10 10:34:00,
2013-01-10 04:39:00,48.3,46.9,30.08,SW,223,7.0,7.0,95,0.00,,SKC,0.00,VWS V14.01,2013-01-10 10:39:00,
2013-01-10 04:44:00,48.2,48.2,30.08,SW,222,3.0,7.0,100,0.00,,SKC,0.00,VWS V14.01,2013-01-10 10:44:00,
2013-01-10 04:49:00,48.1,46.7,30.07,SW,221,2.0,7.0,95,0.00,,SKC,0.00,VWS V14.01,2013-01-10 10:49:00,
2013-01-10 04:54:00,48.1,46.7,30.08,SW,220,4.0,8.0,95,0.00,,SKC,0.00,VWS V14.01,2013-01-10 10:54:00,
2013-01-10 04:59:00,48.1,46.7,30.08,WSW,240,6.0,11.0,95,0.00,,SKC,0.00,VWS V14.01,2013-01-10 10:59:00,
2013-01-10 05:04:00,48.1,46.7,30.08,WSW,239,3.0,7.0,95,0.00,,SKC,0.00,VWS V14.01,2013-01-10 11:04:00,
2013-01-10 05:09:00,48.1,46.7,30.07,WSW,238,4.0,9.0,95,0.00,,SKC,0.00,VWS V14.01,2013-01-10 11:09:00,
2013-01-10 05:14:00,48.1,46.7,30.07,WSW,245,8.0,11.0,95,0.00,,SKC,0.00,VWS V14.01,2013-01-10 11:14:00,
2013-01-10 05:19:00,48.0,46.6,30.07,WSW,242,3.0,11.0,95,0.00,,SKC,0.00,VWS V14.01,2013-01-10 11:19:00,
2013-01-10 05:23:00,47.9,46.5,30.07,WSW,239,2.0,11.0,95,0.00,,SKC,0.00,VWS V14.01,2013-01-10 11:23:00,
2013-01-10 05:28:00,47.7,46.3,30.07,SW,232,2.0,11.0,95,0.00,,SKC,0.00,VWS V14.01,2013-01-10 11:28:00,
2013-01-10 05:33:00,47.6,46.2,30.07,SW,232,4.0,7.0,95,0.00,,SKC,0.00,VWS V14.01,2013-01-10 11:33:00,
2013-01-10 05:38:00,47.4,46.0,30.06,SW,234,5.0,7.0,95,0.00,,SKC,0.00,VWS V14.01,2013-01-10 11:38:00,
2013-01-10 05:43:00,47.4,46.0,30.06,WSW,238,3.0,10.0,95,0.00,,SKC,0.00,VWS V14.01,2013-01-10 11:43:00,
2013-01-10 05:48:00,47.4,46.0,30.06,WSW,238,0.0,10.0,95,0.00,,SKC,0.00,VWS V14.01,2013-01-10 11:48:00,
2013-01-10 05:53:00,47.3,45.9,30.07,WSW,238,5.0,10.0,95,0.00,,SKC,0.00,VWS V14.01,2013-01-10 11:53:00,
2013-01-10 05:58:00,47.2,45.8,30.06,WSW,238,4.0,10.0,95,0.00,,SKC,0.00,VWS V14.01,2013-01-10 11:58:00,
2013-01-10 06:03:00,47.0,45.7,30.06,WSW,238,4.0,6.0,95,0.00,,SKC,0.00,VWS V14.01,2013-01-10 12:03:00,
2013-01-10 06:08:00,46.7,45.3,30.06,WSW,238,3.0,6.0,95,0.00,,SKC,0.00,VWS V14.01,2013-01-10 12:08:00,
2013-01-10 06:13:00,46.5,45.2,30.06,WSW,238,2.0,6.0,95,0.00,,SKC,0.00,VWS V14.01,2013-01-10 12:13:00,
2013-01-10 06:18:00,46.3,45.0,30.06,WSW,238,4.0,6.0,95,0.00,,SKC,0.00,VWS V14.01,2013-01-10 12:18:00,
2013-01-10 06:23:00,46.1,44.8,30.07,WSW,239,3.0,6.0,95,0.00,,SKC,0.00,VWS V14.01,2013-01-10 12:23:00,
2013-01-10 06:28:00,45.9,44.5,30.07,WSW,239,2.0,6.0,95,0.00,,SKC,0.00,VWS V14.01,2013-01-10 12:28:00,
2013-01-10 06:33:00,45.8,44.5,30.07,WSW,238,5.0,5.0,95,0.00,,SKC,0.00,VWS V14.01,2013-01-10 12:33:00,
2013-01-10 06:38:00,45.6,44.2,30.07,WSW,239,0.0,5.0,95,0.00,,SKC,0.00,VWS V14.01,2013-01-10 12:38:00,
2013-01-10 06:43:00,45.5,44.2,30.07,WSW,239,0.0,5.0,95,0.00,,SKC,0.00,VWS V14.01,2013-01-10 12:43:00,
2013-01-10 06:48:00,45.3,44.0,30.07,WSW,239,3.0,6.0,95,0.00,,SKC,0.00,VWS V14.01,2013-01-10 12:48:00,
2013-01-10 06:53:00,45.2,43.9,30.06,WSW,239,2.0,6.0,95,0.00,,SKC,0.00,VWS V14.01,2013-01-10 12:53:00,
2013-01-10 06:58:00,45.1,43.8,30.06,WSW,239,0.0,6.0,95,0.00,,SKC,0.00,VWS V14.01,2013-01-10 12:58:00,
2013-01-10 07:03:00,45.0,43.7,30.06,WSW,239,3.0,5.0,95,0.00,,SKC,0.00,VWS V14.01,2013-01-10 13:03:00,
2013-01-10 07:08:00,45.0,43.7,30.06,WSW,239,0.0,5.0,95,0.00,,SKC,0.00,VWS V14.01,2013-01-10 13:08:00,
2013-01-10 07:13:00,44.9,43.6,30.07,WSW,239,0.0,5.0,95,0.00,,SKC,0.00,VWS V14.01,2013-01-10 13:13:00,
2013-01-10 07:18:00,44.8,43.5,30.07,WSW,239,1.0,5.0,95,0.00,,SKC,0.00,VWS V14.01,2013-01-10 13:18:00,
2013-01-10 07:23:00,44.7,43.4,30.07,WSW,239,2.0,5.0,95,0.00,,SKC,0.00,VWS V14.01,2013-01-10 13:23:00,
2013-01-10 07:28:00,44.6,43.3,30.08,WSW,239,0.0,5.0,95,0.00,,SKC,0.00,VWS V14.01,2013-01-10 13:28:00,
2013-01-10 07:33:00,44.6,43.3,30.08,WSW,239,0.0,0.0,95,0.00,,SKC,0.00,VWS V14.01,2013-01-10 13:33:00,
2013-01-10 07:38:00,44.5,43.2,30.08,WSW,239,0.0,0.0,95,0.00,,SKC,0.00,VWS V14.01,2013-01-10 13:38:00,
2013-01-10 07:43:00,44.4,43.1,30.08,WSW,239,0.0,0.0,95,0.00,,SKC,0.00,VWS V14.01,2013-01-10 13:43:00,
2013-01-10 07:48:00,44.3,43.0,30.08,WSW,239,0.0,2.0,95,0.00,,SKC,0.00,VWS V14.01,2013-01-10 13:48:00,
2013-01-10 07:53:00,44.4,43.1,30.08,WSW,239,2.0,2.0,95,0.00,,SKC,0.00,VWS V14.01,2013-01-10 13:53:00,
2013-01-10 07:58:00,44.4,43.1,30.08,WSW,239,0.0,2.0,95,0.00,,SKC,0.00,VWS V14.01,2013-01-10 13:58:00,
2013-01-10 08:03:00,44.4,43.1,30.09,WSW,239,0.0,0.0,95,0.00,,SKC,0.00,VWS V14.01,2013-01-10 14:03:00,
2013-01-10 08:08:00,44.5,43.2,30.09,WSW,239,0.0,1.0,95,0.00,,SKC,0.00,VWS V14.01,2013-01-10 14:08:00,
2013-01-10 08:13:00,44.6,43.3,30.09,WSW,239,0.0,3.0,95,0.00,,SKC,0.00,VWS V14.01,2013-01-10 14:13:00,
2013-01-10 08:18:00,44.7,43.4,30.09,WSW,239,1.0,4.0,95,0.00,,SKC,0.00,VWS V14.01,2013-01-10 14:18:00,
2013-01-10 08:23:00,44.9,43.6,30.09,WSW,239,3.0,4.0,95,0.00,,SKC,0.00,VWS V14.01,2013-01-10 14:23:00,
2013-01-10 08:28:00,44.9,43.6,30.09,WSW,239,0.0,6.0,95,0.00,,SKC,0.00,VWS V14.01,2013-01-10 14:28:00,
2013-01-10 08:33:00,45.0,43.7,30.09,WSW,239,4.0,5.0,95,0.00,,SKC,0.00,VWS V14.01,2013-01-10 14:33:00,
2013-01-10 08:38:00,45.2,43.9,30.09,NW,311,3.0,5.0,95,0.00,,SKC,0.00,VWS V14.01,2013-01-10 14:38:00,
2013-01-10 08:43:00,45.5,44.2,30.09,NW,304,0.0,5.0,95,0.00,,SKC,0.00,VWS V14.01,2013-01-10 14:43:00,
2013-01-10 08:48:00,45.8,44.5,30.09,West,267,0.0,7.0,95,0.00,,SKC,0.00,VWS V14.01,2013-01-10 14:48:00,
2013-01-10 08:53:00,46.3,45.0,30.09,WSW,250,1.0,11.0,95,0.00,,SKC,0.00,VWS V14.01,2013-01-10 14:53:00,
2013-01-10 08:58:00,46.9,45.5,30.09,West,266,6.0,12.0,95,0.00,,SKC,0.00,VWS V14.01,2013-01-10 14:58:00,
2013-01-10 09:03:00,47.7,45.8,30.08,West,273,10.0,11.0,93,0.00,,SKC,0.00,VWS V14.01,2013-01-10 15:03:00,
2013-01-10 09:08:00,48.4,46.2,30.08,West,263,4.0,11.0,92,0.00,,SKC,0.00,VWS V14.01,2013-01-10 15:08:00,
2013-01-10 09:13:00,49.1,46.3,30.08,West,275,8.0,12.0,90,0.00,,SKC,0.00,VWS V14.01,2013-01-10 15:13:00,
2013-01-10 09:18:00,50.0,46.3,30.08,West,265,13.0,19.0,87,0.00,,SKC,0.00,VWS V14.01,2013-01-10 15:18:00,
2013-01-10 09:23:00,50.7,45.7,30.08,West,262,3.0,19.0,83,0.00,,SKC,0.00,VWS V14.01,2013-01-10 15:23:00,
2013-01-10 09:28:00,51.3,45.3,30.08,WSW,252,7.0,19.0,80,0.00,,SKC,0.00,VWS V14.01,2013-01-10 15:28:00,
2013-01-10 09:33:00,51.9,44.9,30.08,West,261,9.0,14.0,77,0.00,,SKC,0.00,VWS V14.01,2013-01-10 15:33:00,
2013-01-10 09:38:00,52.2,44.2,30.07,WSW,248,7.0,16.0,74,0.00,,SKC,0.00,VWS V14.01,2013-01-10 15:38:00,
2013-01-10 09:43:00,52.4,44.4,30.08,West,270,5.0,16.0,74,0.00,,SKC,0.00,VWS V14.01,2013-01-10 15:43:00,
2013-01-10 09:48:00,52.6,44.6,30.08,West,268,6.0,16.0,74,0.00,,SKC,0.00,VWS V14.01,2013-01-10 15:48:00,
2013-01-10 09:53:00,52.8,44.8,30.08,WSW,249,7.0,17.0,74,0.00,,SKC,0.00,VWS V14.01,2013-01-10 15:53:00,
2013-01-10 09:58:00,53.3,44.9,30.08,WNW,283,6.0,20.0,73,0.00,,SKC,0.00,VWS V14.01,2013-01-10 15:58:00,
2013-01-10 10:03:00,53.9,44.7,30.07,West,278,10.0,15.0,71,0.00,,SKC,0.00,VWS V14.01,2013-01-10 16:03:00,
2013-01-10 10:08:00,54.2,44.6,30.08,NW,326,10.0,15.0,70,0.00,,SKC,0.00,VWS V14.01,2013-01-10 16:08:00,
2013-01-10 10:13:00,54.7,45.1,30.08,WSW,252,7.0,15.0,70,0.00,,SKC,0.00,VWS V14.01,2013-01-10 16:13:00,
2013-01-10 10:18:00,55.2,45.2,30.08,West,281,12.0,18.0,69,0.00,,SKC,0.00,VWS V14.01,2013-01-10 16:18:00,
2013-01-10 10:23:00,55.6,45.2,30.08,West,266,10.0,18.0,68,0.00,,SKC,0.00,VWS V14.01,2013-01-10 16:23:00,
2013-01-10 10:28:00,56.0,45.2,30.08,West,268,7.0,19.0,67,0.00,,SKC,0.00,VWS V14.01,2013-01-10 16:28:00,
2013-01-10 10:33:00,56.3,45.1,30.08,West,278,6.0,15.0,66,0.00,,SKC,0.00,VWS V14.01,2013-01-10 16:33:00,
2013-01-10 10:38:00,56.6,45.0,30.07,West,264,6.0,19.0,65,0.00,,SKC,0.00,VWS V14.01,2013-01-10 16:38:00,
2013-01-10 10:43:00,57.0,45.4,30.07,WSW,257,5.0,19.0,65,0.00,,SKC,0.00,VWS V14.01,2013-01-10 16:43:00,
2013-01-10 10:48:00,57.4,44.9,30.07,WSW,254,16.0,24.0,63,0.00,,SKC,0.00,VWS V14.01,2013-01-10 16:48:00,
2013-01-10 10:53:00,57.6,45.1,30.07,WSW,240,7.0,24.0,63,0.00,,SKC,0.00,VWS V14.01,2013-01-10 16:53:00,
2013-01-10 10:58:00,58.0,45.5,30.07,West,279,7.0,24.0,63,0.00,,SKC,0.00,VWS V14.01,2013-01-10 16:58:00,
2013-01-10 11:03:00,58.3,44.5,30.08,WNW,285,14.0,24.0,60,0.00,,SKC,0.00,VWS V14.01,2013-01-10 17:03:00,
2013-01-10 11:08:00,58.3,44.0,30.08,SW,235,10.0,24.0,59,0.00,,SKC,0.00,VWS V14.01,2013-01-10 17:08:00,
2013-01-10 11:13:00,58.3,44.5,30.08,WSW,254,5.0,24.0,60,0.00,,SKC,0.00,VWS V14.01,2013-01-10 17:13:00,
2013-01-10 11:18:00,58.6,44.8,30.08,WSW,252,12.0,24.0,60,0.00,,SKC,0.00,VWS V14.01,2013-01-10 17:18:00,
2013-01-10 11:23:00,58.7,44.9,30.08,WSW,255,11.0,24.0,60,0.00,,SKC,0.00,VWS V14.01,2013-01-10 17:23:00,
2013-01-10 11:28:00,58.8,45.0,30.08,West,261,9.0,24.0,60,0.00,,SKC,0.00,VWS V14.01,2013-01-10 17:28:00,
2013-01-10 11:33:00,59.0,44.7,30.08,West,281,10.0,19.0,59,0.00,,SKC,0.00,VWS V14.01,2013-01-10 17:33:00,
2013-01-10 11:38:00,59.0,45.2,30.08,WSW,248,6.0,19.0,60,0.00,,SKC,0.00,VWS V14.01,2013-01-10 17:38:00,
2013-01-10 11:43:00,59.3,45.4,30.08,SW,232,12.0,19.0,60,0.00,,SKC,0.00,VWS V14.01,2013-01-10 17:43:00,
2013-01-10 11:48:00,59.5,45.2,30.08,West,261,7.0,19.0,59,0.00,,SKC,0.00,VWS V14.01,2013-01-10 17:48:00,
2013-01-10 11:53:00,59.8,45.9,30.08,WSW,247,5.0,19.0,60,0.00,,SKC,0.00,VWS V14.01,2013-01-10 17:53:00,
2013-01-10 11:58:00,60.1,46.2,30.07,WSW,237,11.0,19.0,60,0.00,,SKC,0.00,VWS V14.01,2013-01-10 17:58:00,
2013-01-10 12:00:00,60.3,45.0,30.07,West,259,6.0,19.0,57,0.00,,SKC,0.00,VWS V14.01,2013-01-10 18:00:00,
2013-01-10 12:04:00,60.4,44.7,30.06,West,273,9.0,9.0,56,0.00,,SKC,0.00,VWS V14.01,2013-01-10 18:04:00,
2013-01-10 12:09:00,60.6,44.4,30.06,WNW,292,5.0,12.0,55,0.00,,SKC,0.00,VWS V14.01,2013-01-10 18:09:00,
2013-01-10 12:14:00,60.8,44.5,30.05,SW,234,6.0,16.0,55,0.00,,SKC,0.00,VWS V14.01,2013-01-10 18:14:00,
2013-01-10 12:19:00,60.9,44.2,30.05,WSW,248,13.0,16.0,54,0.00,,SKC,0.00,VWS V14.01,2013-01-10 18:19:00,
2013-01-10 12:24:00,61.1,44.8,30.05,West,281,4.0,16.0,55,0.00,,SKC,0.00,VWS V14.01,2013-01-10 18:24:00,
2013-01-10 12:29:00,61.2,44.4,30.06,SW,234,7.0,16.0,54,0.00,,SKC,0.00,VWS V14.01,2013-01-10 18:29:00,
2013-01-10 12:34:00,61.4,45.1,30.05,WSW,251,7.0,10.0,55,0.00,,SKC,0.00,VWS V14.01,2013-01-10 18:34:00,
2013-01-10 12:39:00,61.8,45.0,30.05,WSW,244,10.0,13.0,54,0.00,,SKC,0.00,VWS V14.01,2013-01-10 18:39:00,
2013-01-10 12:44:00,61.9,45.1,30.05,WNW,283,5.0,13.0,54,0.00,,SKC,0.00,VWS V14.01,2013-01-10 18:44:00,
2013-01-10 12:49:00,61.9,44.6,30.05,West,265,2.0,13.0,53,0.00,,SKC,0.00,VWS V14.01,2013-01-10 18:49:00,
2013-01-10 12:54:00,61.8,45.0,30.05,WSW,254,4.0,13.0,54,0.00,,SKC,0.00,VWS V14.01,2013-01-10 18:54:00,
2013-01-10 12:59:00,62.1,45.3,30.05,SW,236,9.0,14.0,54,0.00,,SKC,0.00,VWS V14.01,2013-01-10 18:59:00,
2013-01-10 13:04:00,62.4,45.5,30.05,West,273,6.0,9.0,54,0.00,,SKC,0.00,VWS V14.01,2013-01-10 19:04:00,
2013-01-10 13:09:00,62.6,45.7,30.05,West,261,4.0,12.0,54,0.00,,SKC,0.00,VWS V14.01,2013-01-10 19:09:00,
2013-01-10 13:14:00,62.7,44.8,30.05,NW,317,5.0,12.0,52,0.00,,SKC,0.00,VWS V14.01,2013-01-10 19:14:00,
2013-01-10 13:19:00,62.5,44.7,30.05,West,281,2.0,12.0,52,0.00,,SKC,0.00,VWS V14.01,2013-01-10 19:19:00,
2013-01-10 13:24:00,62.7,44.8,30.04,SW,219,6.0,12.0,52,0.00,,SKC,0.00,VWS V14.01,2013-01-10 19:24:00,
2013-01-10 13:29:00,62.9,45.5,30.04,West,278,9.0,12.0,53,0.00,,SKC,0.00,VWS V14.01,2013-01-10 19:29:00,
2013-01-10 13:34:00,63.0,45.1,30.04,WSW,258,2.0,7.0,52,0.00,,SKC,0.00,VWS V14.01,2013-01-10 19:34:00,
2013-01-10 13:39:00,63.1,45.2,30.04,West,281,5.0,7.0,52,0.00,,SKC,0.00,VWS V14.01,2013-01-10 19:39:00,
2013-01-10 13:44:00,63.2,45.3,30.04,WSW,254,5.0,13.0,52,0.00,,SKC,0.00,VWS V14.01,2013-01-10 19:44:00,
2013-01-10 13:49:00,63.2,44.8,30.04,WSW,245,3.0,13.0,51,0.00,,SKC,0.00,VWS V14.01,2013-01-10 19:49:00,
2013-01-10 13:54:00,63.3,45.4,30.04,SW,229,3.0,13.0,52,0.00,,SKC,0.00,VWS V14.01,2013-01-10 19:54:00,
2013-01-10 13:59:00,63.7,45.8,30.04,SW,235,4.0,13.0,52,0.00,,SKC,0.00,VWS V14.01,2013-01-10 19:59:00,
2013-01-10 14:04:00,64.0,45.5,30.04,WSW,248,5.0,10.0,51,0.00,,SKC,0.00,VWS V14.01,2013-01-10 20:04:00,
2013-01-10 14:09:00,63.9,45.4,30.03,WSW,249,1.0,10.0,51,0.00,,SKC,0.00,VWS V14.01,2013-01-10 20:09:00,
2013-01-10 14:14:00,64.1,45.6,30.03,SW,219,5.0,10.0,51,0.00,,SKC,0.00,VWS V14.01,2013-01-10 20:14:00,
2013-01-10 14:19:00,64.5,45.5,30.02,SSW,202,4.0,10.0,50,0.00,,SKC,0.00,VWS V14.01,2013-01-10 20:19:00,
2013-01-10 14:24:00,64.7,45.7,30.02,West,267,0.0,11.0,50,0.00,,SKC,0.00,VWS V14.01,2013-01-10 20:24:00,
2013-01-10 14:29:00,65.0,45.9,30.03,WSW,242,0.0,11.0,50,0.00,,SKC,0.00,VWS V14.01,2013-01-10 20:29:00,
2013-01-10 14:34:00,65.2,45.6,30.03,SW,221,11.0,12.0,49,0.00,,SKC,0.00,VWS V14.01,2013-01-10 20:34:00,
2013-01-10 14:39:00,65.1,44.9,30.02,South,184,5.0,13.0,48,0.00,,SKC,0.00,VWS V14.01,2013-01-10 20:39:00,
2013-01-10 14:44:00,65.1,45.5,30.02,South,190,6.0,13.0,49,0.00,,SKC,0.00,VWS V14.01,2013-01-10 20:44:00,
2013-01-10 14:49:00,65.3,45.7,30.02,SW,227,6.0,13.0,49,0.00,,SKC,0.00,VWS V14.01,2013-01-10 20:49:00,
2013-01-10 14:54:00,65.6,45.4,30.02,SSW,211,3.0,13.0,48,0.00,,SKC,0.00,VWS V14.01,2013-01-10 20:54:00,
2013-01-10 14:59:00,65.9,46.2,30.02,WSW,241,7.0,13.0,49,0.00,,SKC,0.00,VWS V14.01,2013-01-10 20:59:00,
2013-01-10 15:04:00,65.9,45.7,30.02,SW,215,5.0,12.0,48,0.00,,SKC,0.00,VWS V14.01,2013-01-10 21:04:00,
2013-01-10 15:09:00,65.9,45.7,30.02,SSE,163,5.0,12.0,48,0.00,,SKC,0.00,VWS V14.01,2013-01-10 21:09:00,
2013-01-10 15:14:00,65.9,45.7,30.02,SW,232,3.0,13.0,48,0.00,,SKC,0.00,VWS V14.01,2013-01-10 21:14:00,
2013-01-10 15:19:00,66.0,45.8,30.02,South,188,5.0,13.0,48,0.00,,SKC,0.00,VWS V14.01,2013-01-10 21:19:00,
2013-01-10 15:24:00,66.0,45.8,30.02,SSW,199,3.0,13.0,48,0.00,,SKC,0.00,VWS V14.01,2013-01-10 21:24:00,
2013-01-10 15:29:00,66.0,45.8,30.02,SSW,213,4.0,13.0,48,0.00,,SKC,0.00,VWS V14.01,2013-01-10 21:29:00,
2013-01-10 15:34:00,66.2,46.0,30.02,SSW,210,4.0,4.0,48,0.00,,SKC,0.00,VWS V14.01,2013-01-10 21:34:00,
2013-01-10 15:39:00,66.5,45.7,30.02,WSW,250,3.0,9.0,47,0.00,,SKC,0.00,VWS V14.01,2013-01-10 21:39:00,
2013-01-10 15:44:00,66.5,45.7,30.03,SW,232,5.0,10.0,47,0.00,,SKC,0.00,VWS V14.01,2013-01-10 21:44:00,
2013-01-10 15:49:00,66.7,46.4,30.03,SW,233,5.0,10.0,48,0.00,,SKC,0.00,VWS V14.01,2013-01-10 21:49:00,
2013-01-10 15:54:00,66.9,46.0,30.03,SSW,205,8.0,10.0,47,0.00,,SKC,0.00,VWS V14.01,2013-01-10 21:54:00,
2013-01-10 15:59:00,66.8,45.9,30.02,SSW,204,0.0,10.0,47,0.00,,SKC,0.00,VWS V14.01,2013-01-10 21:59:00,
2013-01-10 16:04:00,66.8,45.9,30.02,SSW,205,3.0,11.0,47,0.00,,SKC,0.00,VWS V14.01,2013-01-10 22:04:00,
2013-01-10 16:09:00,66.7,45.3,30.03,WSW,242,3.0,12.0,46,0.00,,SKC,0.00,VWS V14.01,2013-01-10 22:09:00,
2013-01-10 16:14:00,66.5,45.7,30.02,WSW,238,2.0,12.0,47,0.00,,SKC,0.00,VWS V14.01,2013-01-10 22:14:00,
2013-01-10 16:19:00,66.5,45.7,30.02,SSW,208,4.0,12.0,47,0.00,,SKC,0.00,VWS V14.01,2013-01-10 22:19:00,
2013-01-10 16:24:00,66.6,45.8,30.03,SSW,208,2.0,12.0,47,0.00,,SKC,0.00,VWS V14.01,2013-01-10 22:24:00,
2013-01-10 16:29:00,66.8,46.5,30.02,SSW,209,2.0,12.0,48,0.00,,SKC,0.00,VWS V14.01,2013-01-10 22:29:00,
2013-01-10 16:34:00,67.0,46.1,30.02,SW,235,2.0,7.0,47,0.00,,SKC,0.00,VWS V14.01,2013-01-10 22:34:00,
2013-01-10 16:39:00,67.0,46.1,30.03,SW,231,2.0,7.0,47,0.00,,SKC,0.00,VWS V14.01,2013-01-10 22:39:00,
2013-01-10 16:44:00,67.0,45.6,30.02,WSW,245,4.0,7.0,46,0.00,,SKC,0.00,VWS V14.01,2013-01-10 22:44:00,
2013-01-10 16:49:00,66.8,45.4,30.03,SSW,209,3.0,8.0,46,0.00,,SKC,0.00,VWS V14.01,2013-01-10 22:49:00,
2013-01-10 16:54:00,66.6,45.2,30.02,SSW,210,3.0,8.0,46,0.00,,SKC,0.00,VWS V14.01,2013-01-10 22:54:00,
2013-01-10 16:59:00,66.6,45.2,30.03,SW,223,4.0,9.0,46,0.00,,SKC,0.00,VWS V14.01,2013-01-10 22:59:00,
2013-01-10 17:04:00,66.7,45.8,30.02,SW,224,2.0,4.0,47,0.00,,SKC,0.00,VWS V14.01,2013-01-10 23:04:00,
2013-01-10 17:09:00,66.5,45.7,30.02,SW,236,4.0,9.0,47,0.00,,SKC,0.00,VWS V14.01,2013-01-10 23:09:00,
2013-01-10 17:14:00,66.3,45.5,30.02,WSW,242,3.0,9.0,47,0.00,,SKC,0.00,VWS V14.01,2013-01-10 23:14:00,
2013-01-10 17:19:00,66.1,45.9,30.02,WSW,243,5.0,9.0,48,0.00,,SKC,0.00,VWS V14.01,2013-01-10 23:19:00,
2013-01-10 17:24:00,65.8,45.6,30.03,WSW,242,0.0,9.0,48,0.00,,SKC,0.00,VWS V14.01,2013-01-10 23:24:00,
2013-01-10 17:29:00,65.5,45.8,30.03,SSW,196,7.0,11.0,49,0.00,,SKC,0.00,VWS V14.01,2013-01-10 23:29:00,
2013-01-10 17:34:00,65.1,45.5,30.03,SSW,192,2.0,7.0,49,0.00,,SKC,0.00,VWS V14.01,2013-01-10 23:34:00,
2013-01-10 17:39:00,64.7,45.7,30.02,SSW,193,4.0,9.0,50,0.00,,SKC,0.00,VWS V14.01,2013-01-10 23:39:00,
2013-01-10 17:44:00,64.2,45.7,30.02,SSW,192,2.0,9.0,51,0.00,,SKC,0.00,VWS V14.01,2013-01-10 23:44:00,
2013-01-10 17:49:00,63.8,45.9,30.02,SSW,192,2.0,9.0,52,0.00,,SKC,0.00,VWS V14.01,2013-01-10 23:49:00,
2013-01-10 17:54:00,63.3,45.4,30.02,SSW,194,4.0,9.0,52,0.00,,SKC,0.00,VWS V14.01,2013-01-10 23:54:00,
2013-01-10 17:59:00,62.9,46.0,30.02,SSW,194,3.0,9.0,54,0.00,,SKC,0.00,VWS V14.01,2013-01-10 23:59:00,
2013-01-10 18:04:00,62.4,45.5,30.03,SSW,194,3.0,5.0,54,0.00,,SKC,0.00,VWS V14.01,2013-01-11 00:04:00,
2013-01-10 18:09:00,62.0,45.7,30.02,SSW,194,1.0,6.0,55,0.00,,SKC,0.00,VWS V14.01,2013-01-11 00:09:00,
2013-01-10 18:14:00,61.6,45.8,30.03,SSW,194,2.0,6.0,56,0.00,,SKC,0.00,VWS V14.01,2013-01-11 00:14:00,
2013-01-10 18:19:00,61.2,45.9,30.03,SSW,194,3.0,6.0,57,0.00,,SKC,0.00,VWS V14.01,2013-01-11 00:19:00,
2013-01-10 18:24:00,60.9,45.6,30.03,SSW,194,1.0,6.0,57,0.00,,SKC,0.00,VWS V14.01,2013-01-11 00:24:00,
2013-01-10 18:29:00,60.7,45.8,30.04,SSW,194,2.0,6.0,58,0.00,,SKC,0.00,VWS V14.01,2013-01-11 00:29:00,
2013-01-10 18:34:00,60.4,45.6,30.04,SSW,194,2.0,3.0,58,0.00,,SKC,0.00,VWS V14.01,2013-01-11 00:34:00,
2013-01-10 18:39:00,60.2,45.4,30.04,SSW,194,1.0,3.0,58,0.00,,SKC,0.00,VWS V14.01,2013-01-11 00:39:00,
2013-01-10 18:44:00,60.0,45.7,30.04,SSW,194,0.0,3.0,59,0.00,,SKC,0.00,VWS V14.01,2013-01-11 00:44:00,
2013-01-10 18:49:00,59.8,45.5,30.05,SSW,194,0.0,3.0,59,0.00,,SKC,0.00,VWS V14.01,2013-01-11 00:49:00,
2013-01-10 18:54:00,59.6,45.3,30.04,SSW,194,1.0,3.0,59,0.00,,SKC,0.00,VWS V14.01,2013-01-11 00:54:00,
2013-01-10 18:59:00,59.4,45.5,30.05,SSW,194,0.0,4.0,60,0.00,,SKC,0.00,VWS V14.01,2013-01-11 00:59:00,
2013-01-10 19:04:00,59.2,45.3,30.05,SSW,194,1.0,3.0,60,0.00,,SKC,0.00,VWS V14.01,2013-01-11 01:04:00,
2013-01-10 19:09:00,59.0,45.2,30.05,SSW,194,0.0,4.0,60,0.00,,SKC,0.00,VWS V14.01,2013-01-11 01:09:00,
2013-01-10 19:14:00,58.9,45.5,30.04,SSW,194,0.0,4.0,61,0.00,,SKC,0.00,VWS V14.01,2013-01-11 01:14:00,
2013-01-10 19:19:00,58.7,45.3,30.05,SSW,194,0.0,4.0,61,0.00,,SKC,0.00,VWS V14.01,2013-01-11 01:19:00,
2013-01-10 19:24:00,58.6,45.2,30.05,SSW,194,0.0,4.0,61,0.00,,SKC,0.00,VWS V14.01,2013-01-11 01:24:00,
2013-01-10 19:29:00,58.4,45.5,30.05,SSW,194,0.0,4.0,62,0.00,,SKC,0.00,VWS V14.01,2013-01-11 01:29:00,
2013-01-10 19:34:00,58.2,45.3,30.04,SSW,194,0.0,0.0,62,0.00,,SKC,0.00,VWS V14.01,2013-01-11 01:34:00,
2013-01-10 19:39:00,58.0,45.5,30.05,SSW,194,0.0,0.0,63,0.00,,SKC,0.00,VWS V14.01,2013-01-11 01:39:00,
2013-01-10 19:44:00,57.7,45.2,30.05,SSW,194,0.0,0.0,63,0.00,,SKC,0.00,VWS V14.01,2013-01-11 01:44:00,
2013-01-10 19:49:00,57.5,45.4,30.05,SSW,194,0.0,0.0,64,0.00,,SKC,0.00,VWS V14.01,2013-01-11 01:49:00,
2013-01-10 19:54:00,57.2,45.2,30.04,SSW,194,0.0,0.0,64,0.00,,SKC,0.00,VWS V14.01,2013-01-11 01:54:00,
2013-01-10 19:59:00,56.9,45.3,30.04,SSW,194,0.0,1.0,65,0.00,,SKC,0.00,VWS V14.01,2013-01-11 01:59:00,
2013-01-10 20:04:00,56.6,45.4,30.04,SSW,194,0.0,1.0,66,0.00,,SKC,0.00,VWS V14.01,2013-01-11 02:04:00,
2013-01-10 20:09:00,56.3,45.1,30.04,SSW,194,0.0,1.0,66,0.00,,SKC,0.00,VWS V14.01,2013-01-11 02:09:00,
2013-01-10 20:14:00,56.0,45.2,30.04,SSW,194,0.0,1.0,67,0.00,,SKC,0.00,VWS V14.01,2013-01-11 02:14:00,
2013-01-10 20:20:00,55.7,44.9,30.04,SSW,194,0.0,1.0,67,0.00,,SKC,0.00,VWS V14.01,2013-01-11 02:20:00,
2013-01-10 20:25:00,55.5,45.1,30.05,SSW,194,0.0,1.0,68,0.00,,SKC,0.00,VWS V14.01,2013-01-11 02:25:00,
2013-01-10 20:30:00,55.2,44.8,30.05,SSW,194,0.0,1.0,68,0.00,,SKC,0.00,VWS V14.01,2013-01-11 02:30:00,
2013-01-10 20:35:00,54.9,44.9,30.05,SSW,194,0.0,0.0,69,0.00,,SKC,0.00,VWS V14.01,2013-01-11 02:35:00,
2013-01-10 20:40:00,54.8,44.8,30.05,SSW,194,0.0,0.0,69,0.00,,SKC,0.00,VWS V14.01,2013-01-11 02:40:00,
2013-01-10 20:45:00,54.6,44.7,30.05,SSW,194,0.0,0.0,69,0.00,,SKC,0.00,VWS V14.01,2013-01-11 02:45:00,
2013-01-10 20:50:00,54.5,44.9,30.05,SSW,194,0.0,0.0,70,0.00,,SKC,0.00,VWS V14.01,2013-01-11 02:50:00,
2013-01-10 20:54:00,54.3,44.7,30.05,SSW,194,0.0,0.0,70,0.00,,SKC,0.00,VWS V14.01,2013-01-11 02:54:00,
2013-01-10 20:59:00,54.1,44.5,30.05,SSW,194,0.0,0.0,70,0.00,,SKC,0.00,VWS V14.01,2013-01-11 02:59:00,
2013-01-10 21:05:00,53.9,44.7,30.05,SSW,194,0.0,0.0,71,0.00,,SKC,0.00,VWS V14.01,2013-01-11 03:05:00,
2013-01-10 21:10:00,53.6,44.4,30.04,SSW,194,0.0,0.0,71,0.00,,SKC,0.00,VWS V14.01,2013-01-11 03:10:00,
2013-01-10 21:15:00,53.4,44.6,30.05,SSW,194,0.0,0.0,72,0.00,,SKC,0.00,VWS V14.01,2013-01-11 03:15:00,
2013-01-10 21:20:00,53.1,44.7,30.05,SSW,194,0.0,0.0,73,0.00,,SKC,0.00,VWS V14.01,2013-01-11 03:20:00,
2013-01-10 21:25:00,52.8,44.4,30.05,SSW,194,0.0,0.0,73,0.00,,SKC,0.00,VWS V14.01,2013-01-11 03:25:00,
2013-01-10 21:30:00,52.5,44.5,30.05,SSW,194,0.0,0.0,74,0.00,,SKC,0.00,VWS V14.01,2013-01-11 03:30:00,
2013-01-10 21:35:00,52.1,44.4,30.05,SSW,194,0.0,0.0,75,0.00,,SKC,0.00,VWS V14.01,2013-01-11 03:35:00,
2013-01-10 21:40:00,51.7,44.0,30.05,SSW,194,0.0,0.0,75,0.00,,SKC,0.00,VWS V14.01,2013-01-11 03:40:00,
2013-01-10 21:45:00,51.4,44.1,30.05,SSW,194,0.0,0.0,76,0.00,,SKC,0.00,VWS V14.01,2013-01-11 03:45:00,
2013-01-10 21:50:00,51.2,43.9,30.06,SSW,194,0.0,0.0,76,0.00,,SKC,0.00,VWS V14.01,2013-01-11 03:50:00,
2013-01-10 21:55:00,50.9,43.6,30.06,SSW,194,0.0,0.0,76,0.00,,SKC,0.00,VWS V14.01,2013-01-11 03:55:00,
2013-01-10 22:00:00,50.6,43.7,30.05,SSW,194,0.0,0.0,77,0.00,,SKC,0.00,VWS V14.01,2013-01-11 04:00:00,
2013-01-10 22:05:00,50.3,43.7,30.05,SSW,194,0.0,0.0,78,0.00,,SKC,0.00,VWS V14.01,2013-01-11 04:05:00,
2013-01-10 22:10:00,50.0,43.4,30.05,SSW,194,0.0,0.0,78,0.00,,SKC,0.00,VWS V14.01,2013-01-11 04:10:00,
2013-01-10 22:15:00,49.7,43.5,30.05,SSW,194,0.0,0.0,79,0.00,,SKC,0.00,VWS V14.01,2013-01-11 04:15:00,
2013-01-10 22:20:00,49.5,43.3,30.05,SSW,194,0.0,0.0,79,0.00,,SKC,0.00,VWS V14.01,2013-01-11 04:20:00,
2013-01-10 22:25:00,49.2,43.3,30.05,SSW,194,0.0,0.0,80,0.00,,SKC,0.00,VWS V14.01,2013-01-11 04:25:00,
2013-01-10 22:30:00,49.0,43.1,30.05,SSW,194,0.0,0.0,80,0.00,,SKC,0.00,VWS V14.01,2013-01-11 04:30:00,
2013-01-10 22:35:00,48.7,42.8,30.05,SSW,194,0.0,0.0,80,0.00,,SKC,0.00,VWS V14.01,2013-01-11 04:35:00,
2013-01-10 22:40:00,48.5,43.0,30.05,SSW,194,0.0,0.0,81,0.00,,SKC,0.00,VWS V14.01,2013-01-11 04:40:00,
2013-01-10 22:45:00,48.2,42.7,30.05,SSW,194,0.0,0.0,81,0.00,,SKC,0.00,VWS V14.01,2013-01-11 04:45:00,
2013-01-10 22:50:00,48.0,42.8,30.05,SSW,194,0.0,0.0,82,0.00,,SKC,0.00,VWS V14.01,2013-01-11 04:50:00,
2013-01-10 22:55:00,47.7,42.5,30.06,SSW,194,0.0,0.0,82,0.00,,SKC,0.00,VWS V14.01,2013-01-11 04:55:00,
2013-01-10 23:00:00,47.5,42.3,30.05,SSW,194,0.0,0.0,82,0.00,,SKC,0.00,VWS V14.01,2013-01-11 05:00:00,
2013-01-10 23:02:00,47.4,42.2,30.05,SSW,194,0.0,0.0,82,0.00,,SKC,0.00,VWS V14.01,2013-01-11 05:02:00,
2013-01-10 23:03:00,47.3,42.4,30.05,SSW,194,0.0,0.0,83,0.00,,SKC,0.00,VWS V14.01,2013-01-11 05:03:00,
2013-01-10 23:08:00,47.0,42.1,30.05,SSW,194,0.0,0.0,83,0.00,,SKC,0.00,VWS V14.01,2013-01-11 05:08:00,
2013-01-10 23:13:00,46.8,42.2,30.05,SSW,194,0.0,0.0,84,0.00,,SKC,0.00,VWS V14.01,2013-01-11 05:13:00,
2013-01-10 23:18:00,46.6,42.0,30.06,SSW,194,0.0,0.0,84,0.00,,SKC,0.00,VWS V14.01,2013-01-11 05:18:00,
2013-01-10 23:23:00,46.4,42.1,30.06,SSW,194,0.0,0.0,85,0.00,,SKC,0.00,VWS V14.01,2013-01-11 05:23:00,
2013-01-10 23:28:00,46.3,42.0,30.06,SSW,194,0.0,0.0,85,0.00,,SKC,0.00,VWS V14.01,2013-01-11 05:28:00,
2013-01-10 23:33:00,46.1,41.8,30.06,SSW,194,0.0,0.0,85,0.00,,SKC,0.00,VWS V14.01,2013-01-11 05:33:00,
2013-01-10 23:38:00,46.1,42.2,30.06,SSW,194,0.0,0.0,86,0.00,,SKC,0.00,VWS V14.01,2013-01-11 05:38:00,
2013-01-10 23:43:00,46.0,42.0,30.06,SSW,194,0.0,0.0,86,0.00,,SKC,0.00,VWS V14.01,2013-01-11 05:43:00,
2013-01-10 23:48:00,45.9,42.0,30.06,SSW,194,0.0,0.0,86,0.00,,SKC,0.00,VWS V14.01,2013-01-11 05:48:00,
2013-01-10 23:53:00,45.8,41.9,30.06,SSW,194,0.0,0.0,86,0.00,,SKC,0.00,VWS V14.01,2013-01-11 05:53:00,
2013-01-10 23:58:00,45.6,41.7,30.06,SSW,194,0.0,0.0,86,0.00,,SKC,0.00,VWS V14.01,2013-01-11 05:58:00,